Regional Weather Roundup
Issued by NWS

Home | Current Version | Previous Version | Text Only | Print | Product List | Glossary Off
Versions: 1 2 3 4 5 6 7 8 9 10 11 12 13 14 15 16 17 18 19 20 21 22 23 24 25 26 27 28 29 30 31 32 33 34 35 36 37 38 39 40 41 42 43 44 45 46 47 48 49 50

000
ASUS43 KIND 262059
RWRIN

WEATHER ROUNDUP FOR INDIANA
NATIONAL WEATHER SERVICE INDIANAPOLIS IN
500 PM EDT FRI AUG 26 2016

NOTE: "FAIR" INDICATES FEW OR NO CLOUDS BELOW 12,000 FEET WITH NO
SIGNIFICANT WEATHER AND/OR OBSTRUCTIONS TO VISIBILITY.

* - STATION DOES NOT REPORT WEATHER SUCH AS PRECIPITATION OR FOG.

+ - STATION NOT QUALITY CONTROLLED BY THE NATIONAL WEATHER SERVICE.
    USE DATA WITH CAUTION...ESPECIALLY DEWPOINT AND RELATIVE
    HUMIDITY OBSERVATIONS.

INZ001>003-010>013-019-020-262200-
NORTHWEST INDIANA

CITY           SKY/WX    TMP DP  RH WIND       PRES   REMARKS
GARY /AIRPORT/ PTSUNNY   77  68  73 N8        30.12F
KNOX *+        CLOUDY    79  43  27 N6        30.10F
MONTICELLO +   CLOUDY    81  67  62 E3        30.09R
RENSSELAER +   CLOUDY    81  70  69 N3        30.10S

$$

LMZ046-743>745-262200-
SOUTHERN LAKE MICHIGAN

STATION/POSITION TIME  TEMP    WIND        PRES    WAVE
                       AIR SEA DIR/SP/G            HT
                 (UTC) (F)     (DEG/KT/KT) (MB)    (FT)
BURNS HARBOR     2000   74      40/ 10/ 12 1020.3F
MICHIGAN CITY    2000   73      10/ 11/ 12   N/A
5NW MICH CITY    2000   74 75   20/ 10/ 12   N/A     2

$$

INZ004-005-014>016-021>024-262200-
NORTH CENTRAL INDIANA

CITY           SKY/WX    TMP DP  RH WIND       PRES   REMARKS
ELKHART        CLOUDY    84  63  48 CALM      30.12
GOSHEN         SUNNY     82  62  50 E3        30.12F
SOUTH BEND     CLOUDY    81  64  56 CALM      30.12F

$$

INZ006>009-017-018-025>027-262200-
NORTHEAST INDIANA

CITY           SKY/WX    TMP DP  RH WIND       PRES   REMARKS
ANGOLA *+      SUNNY     82  61  47 CALM      30.12F
FORT WAYNE     MOSUNNY   85  64  49 VRB3      30.11F

$$

INZ028-029-035-036-043>045-051>053-262200-
WEST CENTRAL INDIANA

CITY           SKY/WX    TMP DP  RH WIND       PRES   REMARKS
CRAWFORDSVL +  CLOUDY    80  77  92 CALM      30.10R
GREENCASTLE +  CLOUDY    81  79  94 W3        30.09R
LAFAYETTE      CLOUDY    80  73  79 N3        30.09R
TERRE HAUTE    CLOUDY    76  69  79 N10G18    30.09R

$$

INZ030>032-037>040-046>048-054>057-064-065-262200-
CENTRAL INDIANA

CITY           SKY/WX    TMP DP  RH WIND       PRES   REMARKS
COLUMBUS       MOSUNNY   84  70  61 N9        30.08S
INDIANAPOLIS   PTSUNNY   88  72  58 SE5       30.07R
-EAGLE CREEK   CLOUDY    90  71  53 NW6       30.06S HX  96
KOKOMO *+      CLOUDY    84  73  70 NE7       30.09S
MT COMFORT *+  CLOUDY    86  73  66 NE5       30.09R
SHELBYVILLE    PTSUNNY   87  75  67 SW6       30.07S HX  96

$$

INZ033-034-041-042-049-050-058-059-262200-
EAST CENTRAL INDIANA

CITY           SKY/WX    TMP DP  RH WIND       PRES   REMARKS
MUNCIE         MOSUNNY   86  73  65 E8        30.09F

$$

INZ060-061-067>069-081>083-085>088-262200-
SOUTHWEST INDIANA

CITY           SKY/WX    TMP DP  RH WIND       PRES   REMARKS
EVANSVILLE     MOSUNNY   90  72  55 E7        30.04F HX  97
HUNTINGBURG *+ MOSUNNY   91  72  52 S6        30.07S HX  98

$$

INZ062-063-066-070>080-084-089>092-262200-
SOUTH CENTRAL AND SOUTHEAST INDIANA

CITY           SKY/WX    TMP DP  RH WIND       PRES   REMARKS
BLOOMINGTON    PTSUNNY   89  72  56 S7        30.08R HX  96
MADISON *+     MOSUNNY   90  72  55 SW5       30.10S HX  96

$$





USA.gov is the U.S. government's official web portal to all federal, state and local government web resources and services.